460  
ASUS43 KTOP 071359  
RWRKS  
 
WEATHER ROUNDUP FOR KANSAS  
NATIONAL WEATHER SERVICE GOODLAND KS  
900 AM CDT THU JUL 07 2022  
 
NOTE: "FAIR" INDICATES FEW OR NO CLOUDS BELOW 12,000 FEET WITH NO  
SIGNIFICANT WEATHER AND/OR S TO VISIBILITY
.  
 
KSZ001>006-013>018-027>032-041>047-071500-  
NORTHWEST KANSAS  
 
CITY SKY/WX TMP DP RH WIND PRES REMARKS
 
GOODLAND SUNNY 71 63 75 NW14 30.06R  
HAYS MOSUNNY 73 66 78 SW5 29.98R  
HILL CITY MOSUNNY 78 68 71 NW3 29.98R  
RUSSELL PTSUNNY 75 70 84 W7 29.95R  

 
 
KSZ061>065-074>080-084>089-071500-  
SOUTHWEST KANSAS  
 
CITY SKY/WX TMP DP RH WIND PRES REMARKS
 
DODGE CITY SUNNY 75 63 66 N16G23 30.02R  
GARDEN CITY MOSUNNY 72 63 73 N9 30.06R  
GREAT BEND MOSUNNY 74 71 91 NW12 29.97R  
LIBERAL MOSUNNY 73 62 68 NW12G18 30.07R  

 
 
KSZ066>073-081>083-090>101-071500-  
SOUTHEAST KANSAS  
 
CITY SKY/WX TMP DP RH WIND PRES REMARKS
 
CHANUTE MOSUNNY 83 69 62 CALM 29.97R  
COFFEYVILLE MOSUNNY 88 69 53 S14 29.95R  
HUTCHINSON PTSUNNY 78 73 84 CALM 29.91R  
NEWTON PTSUNNY 76 73 91 E7 29.94R  
PARSONS PTSUNNY 85 69 58 S7 29.97R  
WICHITA INTL CLOUDY 78 69 73 SE10 29.89F  
WICHITA JABRA PTSUNNY 79 68 69 SE6 29.91S  
WICHITA MCCONL PTSUNNY 80 67 63 S3 29.90F  
WINFIELD PTSUNNY 82 69 64 SE7 29.94F  

 
 
KSZ007>012-019>026-033>040-048>060-102>105-071500-  
NORTHEAST KANSAS  
 
CITY SKY/WX TMP DP RH WIND PRES REMARKS
 
CONCORDIA PTSUNNY 75 72 90 MISG 29.93R  
EMPORIA CLOUDY 80 74 81 E14 29.94F  
LAWRENCE CLOUDY 76 71 85 E7 29.97F  
MANHATTAN CLOUDY 76 72 87 E10 29.91F  
OLATHE IND CLOUDY 72 71 97 E8 30.00S  
OLATHE EXE CLOUDY 74 71 91 SE7 30.00R  
SALINA MOSUNNY 77 73 87 E10 29.91R  
TOPEKA BILLARD LGT RAIN 75 72 90 E9 29.95F  
TOPEKA FORBES CLOUDY 76 71 85 E12 29.95F  

 
 
 
CLICK HERE TO GO TO PREVIOUS BULLETINS.

The Nexlab KS Page Main Text Page